Time,TemperatureF,DewpointF,PressureIn,WindDirection,WindDirectionDegrees,WindSpeedMPH,WindSpeedGustMPH,Humidity,HourlyPrecipIn,Conditions,Clouds,dailyrainin,SoftwareType,DateUTC
2013-09-17 15:46:00,39.9,34.2,29.77,ENE,68,0.0,0.0,80,0.00,RA,SKC,0.00,WeatherDisplay:10.37,2013-09-17 19:46:00,
2013-09-17 15:47:00,39.9,34.2,29.77,ENE,68,0.0,0.0,80,0.00,RA,SKC,0.00,WeatherDisplay:10.37,2013-09-17 19:47:00,
2013-09-17 15:52:00,63.1,46.7,29.82,SW,225,0.5,0.5,55,0.00,RA,SKC,0.00,WeatherDisplay:10.37,2013-09-17 19:52:00,
2013-09-17 15:57:00,63.1,46.2,29.82,WSW,248,0.9,0.9,54,0.00,RA,SKC,0.00,WeatherDisplay:10.37,2013-09-17 19:57:00,
2013-09-17 16:02:00,63.0,46.0,29.82,South,180,0.5,0.5,54,0.00,RA,SKC,0.00,WeatherDisplay:10.37,2013-09-17 20:02:00,
2013-09-17 16:07:00,63.0,43.5,29.82,WSW,248,1.4,1.4,49,0.00,RA,SKC,0.00,WeatherDisplay:10.37,2013-09-17 20:07:00,
2013-09-17 16:12:00,62.8,45.4,29.82,WSW,248,0.0,0.7,53,0.00,RA,SKC,0.00,WeatherDisplay:10.37,2013-09-17 20:12:00,
2013-09-17 16:17:00,62.6,45.2,29.82,WSW,248,0.5,0.5,53,0.00,RA,SKC,0.00,WeatherDisplay:10.37,2013-09-17 20:17:00,
2013-09-17 16:22:00,62.6,45.2,29.82,SSE,158,1.8,1.8,53,0.00,RA,SKC,0.00,WeatherDisplay:10.37,2013-09-17 20:22:00,
2013-09-17 16:27:00,62.4,44.0,29.82,ESE,112,1.4,1.4,51,0.00,RA,SKC,0.00,WeatherDisplay:10.37,2013-09-17 20:27:00,
2013-09-17 16:32:00,62.2,44.9,29.82,North,0,0.0,0.0,53,0.00,RA,SKC,0.00,WeatherDisplay:10.37,2013-09-17 20:32:00,
2013-09-17 16:37:00,62.2,44.9,29.82,North,0,0.0,0.0,53,0.00,RA,SKC,0.00,WeatherDisplay:10.37,2013-09-17 20:37:00,
2013-09-17 16:42:00,62.1,45.7,29.82,WSW,248,0.5,0.5,55,0.00,RA,SKC,0.00,WeatherDisplay:10.37,2013-09-17 20:42:00,
2013-09-17 16:47:00,61.9,46.0,29.81,SSW,202,0.5,0.5,56,0.00,RA,SKC,0.00,WeatherDisplay:10.37,2013-09-17 20:47:00,
2013-09-17 16:52:00,61.7,45.8,29.81,SW,225,0.0,0.0,56,0.00,RA,SKC,0.00,WeatherDisplay:10.37,2013-09-17 20:52:00,
2013-09-17 16:57:00,61.7,45.8,29.81,SSW,202,1.2,1.2,56,0.00,RA,SKC,0.00,WeatherDisplay:10.37,2013-09-17 20:57:00,
2013-09-17 17:02:00,61.5,45.7,29.81,West,270,0.0,0.0,56,0.00,RA,SKC,0.00,WeatherDisplay:10.37,2013-09-17 21:02:00,
2013-09-17 17:07:00,61.5,46.1,29.81,WSW,248,0.5,0.5,57,0.00,RA,SKC,0.00,WeatherDisplay:10.37,2013-09-17 21:07:00,
2013-09-17 17:13:00,61.5,46.1,29.81,West,270,0.5,0.5,57,0.00,RA,SKC,0.00,WeatherDisplay:10.37,2013-09-17 21:13:00,
2013-09-17 17:18:00,61.3,46.4,29.81,WSW,248,1.4,1.4,58,0.00,RA,SKC,0.00,WeatherDisplay:10.37,2013-09-17 21:18:00,
2013-09-17 17:23:00,61.2,46.3,29.81,SW,225,0.0,0.0,58,0.00,RA,SKC,0.00,WeatherDisplay:10.37,2013-09-17 21:23:00,
2013-09-17 17:28:00,61.2,46.3,29.81,WSW,248,0.0,0.0,58,0.00,RA,SKC,0.00,WeatherDisplay:10.37,2013-09-17 21:28:00,
2013-09-17 17:33:00,61.0,45.6,29.81,WSW,248,0.0,0.0,57,0.00,RA,SKC,0.00,WeatherDisplay:10.37,2013-09-17 21:33:00,
2013-09-17 17:38:00,60.8,45.9,29.81,SW,225,0.0,0.5,58,0.00,RA,SKC,0.00,WeatherDisplay:10.37,2013-09-17 21:38:00,
2013-09-17 17:43:00,60.6,46.2,29.81,SW,225,0.0,0.0,59,0.00,RA,SKC,0.00,WeatherDisplay:10.37,2013-09-17 21:43:00,
2013-09-17 17:48:00,60.3,46.3,29.81,SW,225,0.0,0.0,60,0.00,RA,SKC,0.00,WeatherDisplay:10.37,2013-09-17 21:48:00,
2013-09-17 17:53:00,60.1,46.1,29.81,SW,225,0.2,0.2,60,0.00,RA,SKC,0.00,WeatherDisplay:10.37,2013-09-17 21:53:00,
2013-09-17 17:58:00,59.5,46.5,29.81,SW,225,0.0,0.0,62,0.00,RA,SKC,0.00,WeatherDisplay:10.37,2013-09-17 21:58:00,
2013-09-17 18:03:00,59.2,46.2,29.81,SW,225,0.0,0.0,62,0.00,RA,SKC,0.00,WeatherDisplay:10.37,2013-09-17 22:03:00,
2013-09-17 18:08:00,58.8,46.2,29.81,SW,225,0.0,0.0,63,0.00,RA,SKC,0.00,WeatherDisplay:10.37,2013-09-17 22:08:00,
2013-09-17 18:13:00,58.5,46.3,29.81,SW,225,0.0,0.0,64,0.00,RA,SKC,0.00,WeatherDisplay:10.37,2013-09-17 22:13:00,
2013-09-17 18:18:00,57.9,45.8,29.81,SW,225,0.0,0.0,64,0.00,RA,SKC,0.00,WeatherDisplay:10.37,2013-09-17 22:18:00,
2013-09-17 18:23:00,57.6,45.9,29.81,SW,225,0.0,0.0,65,0.00,RA,SKC,0.00,WeatherDisplay:10.37,2013-09-17 22:23:00,
2013-09-17 18:28:00,57.4,45.7,29.81,SW,225,0.0,0.0,65,0.00,RA,SKC,0.00,WeatherDisplay:10.37,2013-09-17 22:28:00,
2013-09-17 18:33:00,56.7,46.2,29.81,SW,225,0.0,0.0,68,0.00,RA,SKC,0.00,WeatherDisplay:10.37,2013-09-17 22:33:00,
2013-09-17 18:39:00,56.5,46.4,29.81,SSW,202,0.2,0.2,69,0.00,RA,SKC,0.00,WeatherDisplay:10.37,2013-09-17 22:39:00,
2013-09-17 18:44:00,55.9,46.3,29.81,SSW,202,0.0,0.0,70,0.00,RA,SKC,0.00,WeatherDisplay:10.37,2013-09-17 22:44:00,
2013-09-17 18:49:00,55.8,46.1,29.80,SSW,202,0.0,0.0,70,0.00,RA,SKC,0.00,WeatherDisplay:10.37,2013-09-17 22:49:00,
2013-09-17 18:54:00,55.0,45.8,29.80,SSW,202,0.0,0.0,71,0.00,RA,SKC,0.00,WeatherDisplay:10.37,2013-09-17 22:54:00,
2013-09-17 18:59:00,54.9,46.0,29.80,SSW,202,0.0,0.0,72,0.00,RA,SKC,0.00,WeatherDisplay:10.37,2013-09-17 22:59:00,
2013-09-17 19:04:00,54.7,45.8,29.81,SSW,202,0.0,0.0,72,0.00,RA,SKC,0.00,WeatherDisplay:10.37,2013-09-17 23:04:00,
2013-09-17 19:09:00,54.1,45.7,29.80,SSW,202,0.0,0.0,73,0.00,RA,SKC,0.00,WeatherDisplay:10.37,2013-09-17 23:09:00,
2013-09-17 19:14:00,53.8,45.7,29.80,SSW,202,0.0,0.2,74,0.00,RA,SKC,0.00,WeatherDisplay:10.37,2013-09-17 23:14:00,
2013-09-17 19:19:00,53.4,45.3,29.81,SSW,202,0.5,0.5,74,0.00,RA,SKC,0.00,WeatherDisplay:10.37,2013-09-17 23:19:00,
2013-09-17 19:24:00,53.4,45.7,29.81,SSW,202,0.2,0.2,75,0.00,RA,SKC,0.00,WeatherDisplay:10.37,2013-09-17 23:24:00,
2013-09-17 19:29:00,52.7,45.7,29.81,South,180,0.5,0.5,77,0.00,RA,SKC,0.00,WeatherDisplay:10.37,2013-09-17 23:29:00,
2013-09-17 19:34:00,52.2,45.2,29.81,SSE,158,0.0,0.0,77,0.00,RA,SKC,0.00,WeatherDisplay:10.37,2013-09-17 23:34:00,
2013-09-17 19:39:00,52.0,45.0,29.81,SSE,158,0.0,0.0,77,0.00,RA,SKC,0.00,WeatherDisplay:10.37,2013-09-17 23:39:00,
2013-09-17 19:44:00,51.8,44.8,29.81,SSE,158,0.0,0.0,77,0.00,RA,SKC,0.00,WeatherDisplay:10.37,2013-09-17 23:44:00,
2013-09-17 19:49:00,51.6,45.0,29.82,SSW,202,0.9,0.9,78,0.00,RA,SKC,0.00,WeatherDisplay:10.37,2013-09-17 23:49:00,
2013-09-17 19:55:00,51.3,44.6,29.81,SW,225,0.0,0.0,78,0.00,RA,SKC,0.00,WeatherDisplay:10.37,2013-09-17 23:55:00,
2013-09-17 20:00:00,51.1,44.8,29.82,SW,225,0.2,0.2,79,0.00,RA,SKC,0.00,WeatherDisplay:10.37,2013-09-18 00:00:00,
2013-09-17 20:05:00,50.7,44.8,29.82,SSW,202,0.0,0.0,80,0.00,RA,SKC,0.00,WeatherDisplay:10.37,2013-09-18 00:05:00,
2013-09-17 20:10:00,50.2,44.6,29.82,SW,225,0.0,0.0,81,0.00,RA,SKC,0.00,WeatherDisplay:10.37,2013-09-18 00:10:00,
2013-09-17 20:15:00,50.0,44.4,29.82,SW,225,0.0,0.0,81,0.00,RA,SKC,0.00,WeatherDisplay:10.37,2013-09-18 00:15:00,
2013-09-17 20:20:00,50.0,44.1,29.82,SW,225,0.2,0.2,80,0.00,RA,SKC,0.00,WeatherDisplay:10.37,2013-09-18 00:20:00,
2013-09-17 20:25:00,49.8,44.5,29.83,South,180,0.5,0.5,82,0.00,RA,SKC,0.00,WeatherDisplay:10.37,2013-09-18 00:25:00,
2013-09-17 20:30:00,49.3,44.0,29.83,SSE,158,0.0,0.0,82,0.00,RA,SKC,0.00,WeatherDisplay:10.37,2013-09-18 00:30:00,
2013-09-17 20:35:00,48.9,44.0,29.83,SW,225,0.0,0.0,83,0.00,RA,SKC,0.00,WeatherDisplay:10.37,2013-09-18 00:35:00,
2013-09-17 20:40:00,48.7,43.8,29.83,SE,135,0.0,0.2,83,0.00,RA,SKC,0.00,WeatherDisplay:10.37,2013-09-18 00:40:00,
2013-09-17 20:45:00,48.4,43.1,29.82,SE,135,0.5,0.5,82,0.00,RA,SKC,0.00,WeatherDisplay:10.37,2013-09-18 00:45:00,
2013-09-17 20:50:00,48.2,42.6,29.82,SE,135,0.0,0.0,81,0.00,RA,SKC,0.00,WeatherDisplay:10.37,2013-09-18 00:50:00,
2013-09-17 20:55:00,48.2,42.6,29.82,SE,135,0.0,0.0,81,0.00,RA,SKC,0.00,WeatherDisplay:10.37,2013-09-18 00:55:00,
2013-09-17 21:00:00,48.2,42.6,29.82,SE,135,0.0,0.0,81,0.00,RA,SKC,0.00,WeatherDisplay:10.37,2013-09-18 01:00:00,
2013-09-17 21:05:00,48.2,42.6,29.82,SE,135,0.5,0.5,81,0.00,RA,SKC,0.00,WeatherDisplay:10.37,2013-09-18 01:05:00,
2013-09-17 21:10:00,47.8,42.3,29.82,SSE,158,0.0,0.0,81,0.00,RA,SKC,0.00,WeatherDisplay:10.37,2013-09-18 01:10:00,
2013-09-17 21:15:00,47.8,42.3,29.83,SW,225,0.5,0.5,81,0.00,RA,SKC,0.00,WeatherDisplay:10.37,2013-09-18 01:15:00,
2013-09-17 21:20:00,47.5,42.3,29.83,SW,225,0.0,0.0,82,0.00,RA,SKC,0.00,WeatherDisplay:10.37,2013-09-18 01:20:00,
2013-09-17 21:25:00,47.3,42.1,29.83,SW,225,0.0,0.0,82,0.00,RA,SKC,0.00,WeatherDisplay:10.37,2013-09-18 01:25:00,
2013-09-17 21:30:00,46.9,41.7,29.83,SW,225,0.0,0.0,82,0.00,RA,SKC,0.00,WeatherDisplay:10.37,2013-09-18 01:30:00,
2013-09-17 21:35:00,46.8,41.6,29.83,SSW,202,0.0,0.0,82,0.00,RA,SKC,0.00,WeatherDisplay:10.37,2013-09-18 01:35:00,
2013-09-17 21:40:00,46.8,41.6,29.83,SSW,202,0.0,0.0,82,0.00,RA,SKC,0.00,WeatherDisplay:10.37,2013-09-18 01:40:00,
2013-09-17 21:45:00,46.4,41.2,29.83,SSW,202,0.2,0.2,82,0.00,RA,SKC,0.00,WeatherDisplay:10.37,2013-09-18 01:45:00,
2013-09-17 21:51:00,46.0,40.9,29.83,SSW,202,0.0,0.0,82,0.00,RA,SKC,0.00,WeatherDisplay:10.37,2013-09-18 01:51:00,
2013-09-17 21:56:00,45.9,41.0,29.83,SW,225,0.7,0.7,83,0.00,RA,SKC,0.00,WeatherDisplay:10.37,2013-09-18 01:56:00,
2013-09-17 22:02:00,45.7,40.8,29.83,South,180,0.0,0.0,83,0.00,RA,SKC,0.00,WeatherDisplay:10.37,2013-09-18 02:02:00,
2013-09-17 22:07:00,45.5,40.6,29.83,South,180,0.0,0.0,83,0.00,RA,SKC,0.00,WeatherDisplay:10.37,2013-09-18 02:07:00,
2013-09-17 22:12:00,45.3,40.5,29.83,South,180,0.0,0.0,83,0.00,RA,SKC,0.00,WeatherDisplay:10.37,2013-09-18 02:12:00,
2013-09-17 22:17:00,45.1,40.3,29.83,South,180,0.0,0.0,83,0.00,RA,SKC,0.00,WeatherDisplay:10.37,2013-09-18 02:17:00,
2013-09-17 22:22:00,45.1,40.3,29.83,South,180,0.0,0.0,83,0.00,RA,SKC,0.00,WeatherDisplay:10.37,2013-09-18 02:22:00,
2013-09-17 22:27:00,45.0,40.1,29.83,South,180,0.5,0.5,83,0.00,RA,SKC,0.00,WeatherDisplay:10.37,2013-09-18 02:27:00,
2013-09-17 22:32:00,44.8,40.5,29.83,South,180,0.0,0.0,85,0.00,RA,SKC,0.00,WeatherDisplay:10.37,2013-09-18 02:32:00,
2013-09-17 22:37:00,44.6,40.4,29.82,South,180,0.0,0.0,85,0.00,RA,SKC,0.00,WeatherDisplay:10.37,2013-09-18 02:37:00,
2013-09-17 22:42:00,44.6,40.4,29.83,South,180,0.0,0.0,85,0.00,RA,SKC,0.00,WeatherDisplay:10.37,2013-09-18 02:42:00,
2013-09-17 22:47:00,44.6,40.4,29.83,South,180,0.0,0.2,85,0.00,RA,SKC,0.00,WeatherDisplay:10.37,2013-09-18 02:47:00,
2013-09-17 22:52:00,44.4,40.2,29.83,South,180,0.2,0.2,85,0.00,RA,SKC,0.00,WeatherDisplay:10.37,2013-09-18 02:52:00,
2013-09-17 22:57:00,43.9,39.7,29.83,South,180,0.0,0.0,85,0.00,RA,SKC,0.00,WeatherDisplay:10.37,2013-09-18 02:57:00,